Cloud_Cover
89 100 100 100 100 100 100 100 100 79 100 100 100 100 100 100 97 100 100 94 100 100 40 5 6 93 100 100 88 25 13 83 98 100 100 100 82 100 65 77 22 2 0
100 100 100 100 100 100 100 100 100 10 47 100 98 100 100 100 100 100 100 90 61 100 100 30 6 19 100 100 5 8 27 50 41 100 100 100 100 100 75 9 5 5 0
100 100 100 100 100 100 100 100 95 38 18 36 68 100 99 100 100 100 66 54 100 100 58 28 82 83 100 79 67 50 55 16 60 100 97 93 79 32 100 85 8 4 0
100 100 100 100 100 100 100 100 100 100 100 100 99 100 100 100 100 100 100 90 100 100 100 100 98 74 20 100 100 100 100 100 100 97 47 100 100 50 26 24 5 23 11
96 85 100 100 100 100 100 100 100 100 100 97 100 99 97 100 100 100 100 100 100 100 100 100 21 9 19 62 95 100 100 100 100 100 100 100 100 86 99 90 9 5 5
4 17 100 100 100 100 100 100 100 99 18 100 100 100 100 100 100 100 100 100 100 100 100 100 100 92 99 6 5 5 6 90 87 83 47 86 100 62 87 5 5 5 5
19 5 52 49 100 100 100 100 100 84 45 28 65 100 100 100 100 100 100 100 100 100 100 100 100 100 47 91 56 28 78 17 37 7 10 11 5 5 5 5 4 5 42
0 27 10 5 100 73 75 45 59 100 81 19 100 100 100 98 80 94 100 100 100 100 99 100 66 99 100 100 100 100 100 97 22 5 8 61 17 5 5 5 5 5 5
0 0 28 98 10 26 6 7 94 72 100 62 100 100 100 97 100 100 100 100 100 100 100 100 100 99 100 100 100 100 100 100 91 100 96 69 4 5 5 5 5 5 5
1 0 0 0 4 5 14 5 5 30 18 42 99 100 100 100 100 100 100 100 100 100 80 87 99 88 100 100 100 100 100 100 100 100 30 11 27 25 18 65 24 5 5
87 7 5 4 0 0 1 4 2 1 0 5 5 99 76 99 99 100 100 85 90 92 100 94 100 100 100 100 100 92 100 100 100 100 100 37 100 98 5 17 5 19 36
0 0 0 1 1 0 0 0 0 1 1 0 0 2 23 18 35 100 100 100 100 94 100 41 79 92 100 100 100 98 100 91 100 100 100 100 100 42 5 5 43 100 100
0 0 0 0 0 0 0 0 0 0 0 0 0 0 0 7 6 94 95 100 100 100 63 93 100 100 100 100 100 95 98 100 100 96 51 86 100 44 1 4 87 100 99
0 0 0 0 0 0 0 0 0 0 0 0 0 0 0 0 5 8 99 92 100 100 100 100 100 60 90 100 100 100 100 100 100 100 100 96 85 61 0 7 28 100 68
0 0 0 0 0 0 0 0 0 0 0 0 0 0 0 0 26 9 45 0 84 100 100 100 100 100 99 100 100 100 100 100 100 100 100 22 74 34 3 2 6 100 55
0 0 0 0 0 0 0 0 0 0 0 0 0 54 0 12 100 81 42 100 100 100 100 100 100 100 100 100 100 100 100 100 100 100 93 56 54 5 20 4 10 58 100
12 1 0 4 0 0 2 9 0 0 0 0 13 99 100 15 100 100 100 92 100 100 100 100 100 100 100 100 100 100 100 100 100 100 100 86 95 6 7 4 8 64 39
90 44 53 80 91 100 100 70 73 47 3 0 50 42 97 100 100 100 100 100 100 100 100 82 100 100 100 100 100 100 100 100 100 100 100 96 100 98 97 34 54 16 9
100 100 100 97 80 42 39 33 67 96 68 19 25 68 94 100 100 100 100 94 62 87 65 34 96 100 100 100 100 100 100 100 100 100 100 100 100 100 100 98 67 59 79
99 100 100 100 100 100 100 94 68 20 88 95 76 100 100 100 100 12 8 73 85 20 95 22 40 100 100 100 100 100 100 100 100 100 100 100 100 77 80 87 41 81 79
100 87 96 100 97 45 98 100 100 72 58 6 69 100 100 100 94 98 100 3 11 14 68 85 78 100 100 100 100 100 100 100 100 100 100 100 100 100 89 100 87 85 100
90 100 99 100 100 100 100 100 100 79 53 82 23 89 100 94 98 50 59 76 16 0 39 88 42 82 100 100 100 100 100 100 100 100 100 100 100 100 100 100 98 100 100
95 89 100 100 100 98 87 70 100 100 76 94 84 49 100 100 80 85 24 30 76 66 16 56 83 5 100 100 100 100 100 97 100 100 100 100 100 100 100 100 100 100 100
100 100 100 100 100 100 100 100 100 75 85 51 94 92 78 90 100 87 93 96 100 100 85 50 74 27 50 100 99 100 100 100 100 100 96 100 100 100 100 100 100 100 100
100 100 100 100 100 100 100 100 100 100 100 100 36 93 99 82 100 84 100 77 68 83 73 29 45 38 97 100 100 100 100 100 100 100 100 100 100 100 100 100 100 100 100
100 100 100 96 100 100 100 100 100 100 100 100 68 50 32 54 94 97 38 6 31 46 75 86 51 7 21 99 100 100 100 100 100 100 100 100 100 100 100 100 100 100 100